{"data":{"norad_id":48800,"epoch":"2026-05-25T01:25:11.409312Z","epoch_age_seconds":69839,"freshness":"FRESH","line1":"1 48800U 21045AK  26145.05915983 -.00000079  00000+0 -24281-3 0  9997","line2":"2 48800  87.8999 263.7868 0001270  87.0596 273.0679 13.15550441241254","mean_motion":13.15550441,"eccentricity":0.000127,"inclination_deg":87.8999,"raan_deg":263.7868,"arg_perigee_deg":87.0596,"mean_anomaly_deg":273.0679,"bstar":-0.00024281,"rev_number":24125,"period_min":109.4598850125,"perigee_km":1200.8008564161,"apogee_km":1202.726151144,"semimajor_km":7579.9005037801,"source":"CELESTRAK","updated_at":"2026-05-25T13:38:22.448796Z"}}